User: anonymous   Login
Location: Pl�tzky
(52.0521°N, 11.8020°E)
Time: 23:46:30
(UTC+00:00)
Language:

Cosmos 44 - Orbit

View from above orbital plane
View from above orbital plane
View from above satellite
View from above satellite

Ground track
Ground track

The orbit data is extracted from the following two-line orbital elements,

1   876U 64053A   20023.39075416 -.00000109 +00000-0 +47930-5 0  9990
2   876 065.0617 016.0951 0121662 099.6285 261.8585 14.63748610946483
Epoch (UTC): 23 January 2020 09:22:41
Eccentricity: 0.0121662
inclination: 65.0617°
perigee height: 595 km
apogee height: 767 km
right ascension of ascending node: 16.0951°
argument of perigee: 99.6285°
revolutions per day: 14.63748610
mean anomaly at epoch: 261.8585°
orbit number at epoch: 94648

The dashed part of the orbit path shows where the satellite is in the earth's shadow,  

DLR